Location: Taio
(46.3224°N, 11.0658°E)
Time: 01:37:14
(UTC+02:00)

ISS - Visible Passes

Search period start: 21 May 2018 00:00
Search period end: 31 May 2018 00:00
Orbit: 402 x 407 km, 51.6° (Epoch: 21 May)

Date Brightness Start Highest point End Pass type
(mag) Time Alt. Az. Time Alt. Az. Time Alt. Az.
21 May -2.2 00:45:29 10° W 00:48:31 35° N 00:51:34 10° ENE visible
21 May -2.1 02:22:29 10° WNW 02:25:31 34° N 02:28:33 10° ENE visible
21 May -4.0 03:58:58 10° WNW 04:02:14 80° SSW 04:05:30 10° ESE visible
21 May -3.6 22:16:36 10° SW 22:19:42 44° SE 22:22:51 10° ENE visible
21 May -2.6 23:53:04 10° W 23:56:13 43° NNW 23:59:23 10° ENE visible
22 May -1.9 01:30:13 10° WNW 01:33:11 31° N 01:36:09 10° ENE visible
22 May -3.5 03:06:47 10° WNW 03:10:03 66° NNE 03:13:18 10° ESE visible
22 May -2.6 04:43:40 10° W 04:46:17 22° SW 04:48:54 10° SSE visible
22 May -2.8 21:24:53 10° SSW 21:27:39 26° SE 21:30:26 10° E visible
22 May -3.3 23:00:43 10° WSW 23:03:57 60° NNW 23:07:12 10° ENE visible
23 May -1.9 00:37:52 10° WNW 00:40:50 30° N 00:43:48 10° ENE visible
23 May -2.8 02:14:37 10° WNW 02:17:47 46° NNE 02:20:57 10° E visible
23 May -3.4 03:51:10 10° WNW 03:54:15 38° SW 03:57:18 10° SSE visible
23 May -3.9 22:08:27 10° WSW 22:11:43 89° SSE 22:15:00 10° ENE visible
23 May -2.0 23:45:28 10° WNW 23:48:29 33° N 23:51:30 10° ENE visible
24 May -2.3 01:22:24 10° WNW 01:25:28 36° NNE 01:27:53 14° ENE visible
24 May -2.2 02:58:52 10° WNW 03:00:17 23° WNW 03:00:17 23° WNW visible
24 May -2.4 22:53:01 10° W 22:56:08 39° NNW 22:59:14 10° ENE visible
25 May -2.0 00:30:07 10° WNW 00:33:06 32° N 00:35:40 13° ENE visible
25 May -2.1 02:06:38 10° WNW 02:08:15 26° WNW 02:08:15 26° WNW visible
25 May -2.9 22:00:35 10° W 22:03:48 52° NNW 22:07:01 10° ENE visible
25 May -1.9 23:37:46 10° WNW 23:40:43 30° N 23:43:40 10° ENE visible
26 May -2.8 01:14:26 10° WNW 01:17:10 46° NNW 01:17:10 46° NNW visible
26 May -2.0 22:45:20 10° WNW 22:48:19 32° N 22:51:18 10° ENE visible
27 May -2.5 00:22:12 10° WNW 00:25:18 39° NNE 00:26:18 30° ENE visible
27 May -1.1 01:58:40 10° WNW 01:58:56 12° WNW 01:58:56 12° WNW visible
27 May -2.2 21:52:50 10° W 21:55:55 37° NNW 21:59:00 10° ENE visible
27 May -2.1 23:29:54 10° WNW 23:32:55 33° N 23:35:33 12° ENE visible
28 May -2.3 01:06:23 10° WNW 01:08:10 30° WNW 01:08:10 30° WNW visible
28 May -2.0 22:37:31 10° WNW 22:40:29 30° N 22:43:27 10° ENE visible
29 May -3.4 00:14:08 10° WNW 00:17:22 59° NNE 00:17:28 59° NNE visible
29 May -2.0 21:45:04 10° WNW 21:48:03 31° N 21:51:01 10° ENE visible
29 May -2.7 23:21:52 10° WNW 23:25:00 43° NNE 23:26:49 21° ENE visible
30 May -1.6 00:58:23 10° WNW 00:59:27 18° W 00:59:27 18° W visible
30 May -2.3 22:29:33 10° WNW 22:32:36 34° N 22:35:38 10° ENE visible
